Skip Page Navigation
NASA JPL Caltech
NASA Logo - Jet Propulsion Laboratory + View the NASA Portal
+ Near-Earth Object (NEO) Program
Search JPL
JPL Home Earth Solar System Stars & Galaxies Technology
JPL Solar System Dynamics
BODIES ORBITS EPHEMERIDES TOOLS PHYSICAL DATA DISCOVERY FAQ SITE MAP
JPL Small-Body Database Browser
Search: [ help ]  
85121 Loehde (1976 KF3)
Classification: Main-belt Asteroid          SPK-ID: 2085121
Ephemeris | Orbit Diagram | Orbital Elements | Physical Parameters | Discovery Circumstances ]

[ hide orbit diagram ]
Orbit Diagram
Note: Make sure you have Java enabled on your browser to see the applet. This applet is provided as a 3D orbit visualization tool. The applet was implemented using 2-body methods, and hence should not be used for determining accurate long-term trajectories (over several years or decades) or planetary encounter circumstances. For accurate long-term ephemerides, please instead use our Horizons system.
Orbit Viewer

Additional Notes: the orbits shown in the applet are color coded. The planets are white lines, and the asteroid/comet is a blue line. The bright white line indicates the portion of the orbit that is above the ecliptic plane, and the darker portion is below the ecliptic plane. Likewise for the asteroid/comet orbit, the light blue indicates the portion above the ecliptic plane, and the dark blue the portion below the ecliptic plane.

Orbit Viewer applet originally written and kindly provided by Osamu Ajiki (AstroArts), and further modified by Ron Baalke (JPL).


Orbital Elements at Epoch 2456400.5 (2013-Apr-18.0) TDB
Reference: MPO244832 (heliocentric ecliptic J2000)
 Element Value Uncertainty (1-sigma)   Units 
e 0.0759765 n/a  
a 2.3038693 n/a AU
q 2.1288294 n/a AU
i 6.03782 n/a deg
node 345.01586 n/a deg
peri 253.46406 n/a deg
M 194.33983 n/a deg
tp 2456988.2610089
(2014-Nov-26.76100890)
n/a JED
period 1277.2772310
3.50
n/a
n/a
d
yr
n 0.28184954 n/a deg/d
Q 2.4789092 n/a AU
  Orbit Determination Parameters
   # obs. used (total)      198  
   first obs. used      1955-??-??  
   last obs. used      2012-11-13  
   # oppositions      12  
   planetary ephem.      DE403  
   condition code      0  
   fit RMS      0.60  
   data source      MPC:mpn  
   producer      MPCLINUX  

Additional Information
 T_jup = 3.578 

Ephemeris | Orbit Diagram | Orbital Elements | Physical Parameters | Discovery Circumstances ]

Physical Parameter Table
Parameter Symbol Value Units Sigma Reference Notes
absolute magnitude H 16.2 mag n/a E2004K46  

85121 Loehde           Discovered 1976 May 27 by A. Lowe at Siding Spring.
Franklin C. Loehde (b. 1936) is a retired science educator in Edmonton. He was involved in successful efforts to build the Queen Elizabeth Planetarium in 1960 and the Edmonton Space Sciences Centre (now the Odyssium) in 1984. He served as National President of the Royal Astronomical Society of Canada during 1982-1984.
NOTE: some special characters may not display properly (any characters within {} are an attempt to place the proper accent above a character)
Reference: 20050125/MPCPages.arcLast Updated: 2005-06-01

Alternate Designations
 1976 KF3 = 2000 DH31 
Ephemeris | Orbit Diagram | Orbital Elements | Physical Parameters | Discovery Circumstances ]
ABOUT SSD CREDITS/AWARDS PRIVACY/COPYRIGHT GLOSSARY LINKS
FirstGov 2013-May-23 21:11 UT
(server date/time)  
NASA Home Page
Site Manager:   Donald K. Yeomans
Webmaster  Alan B. Chamberlin